Погода в Цмуре

Россия / Республика Дагестан     41°41′04″N   48°03′22″E
В апреле 2022 года жителям России запретили посещать сайт meteo.paraplan.net по решению Генеральной прокуратуры. Аудитория сайта уменьшилась в 10 раз. Владельцы сайта не видят смысла в поддержке погодного сервера в таких условиях. Сайт будет закрыт в октябре.
темп.,
°C
ветер,
м/с
пор.,
м/с
влажн.,
%
обл.,
%
осадки,
мм/ч
давл.,
гПа
погр.,
м
29 сентября, чт
чт2900:00+17зсз2226100 0.0 100911
03:00+15зсз1137100 0.0 101011
06:00+15з223448 0.0 101111
09:00+21всв213522 0.0 1011522
12:00+23всв43290 0.0 10121277
15:00+21св54480 0.0 10131140
18:00+15вюв018714 0.0 101611
21:00+14з22824 0.0 101715
30 сентября, пт
пт3000:00+14з227247 0.0 101713
03:00+14з22700 0.0 101813
06:00+14з32661 0.0 101915
09:00+20в21410 0.0 1019777
12:00+22в43350 0.0 10191373
15:00+21в43360 0.0 10191118
18:00+15ююз11534 0.0 102111
21:00+15з22524 0.0 102111
1 октября, сб
сб100:00+14з22525 0.0 102111
03:00+14зюз22564 0.0 102111
06:00+14з225825 0.0 102212
09:00+19всв21394 0.0 1022594
12:00+22в43289 0.0 10211418
15:00+21в433218 0.0 10201292
18:00+16зюз115593 0.1 102216
21:00+15зюз116045 0.2 102213
2 октября, вс
вс200:00+14з22615 0.0 102113
03:00+14з22600 0.0 102013
06:00+14з32594 0.0 102016
09:00+20вюв32410 0.0 1018720
12:00+22в43334 0.0 10161280
15:00+21в44352 0.0 10141250
18:00+14зсз01635 0.0 101411
21:00+14з225581 0.0 101314
3 октября, пн
пн300:00+14зюз225795 0.0 101115
03:00+13з225085 0.0 100918
06:00+13з224783 0.0 100816
09:00+18всв214137 0.0 1008374
12:00+21всв313854 0.0 1007764
15:00+21всв424444 0.0 1008860
18:00+14с1185100 0.0 101115
21:00+13сз118387 0.0 101213